星链-34745 (STARLINK-34745)

导读

STARLINK-34745是美国太空探索技术公司Starlink星链互联网星座的一员,于2025年7月31日由美国发射升空。该卫星属于星链项目低轨卫星组网扩容任务,运行在近地轨道,为全球提供高速低延迟互联网覆盖服务,尤其服务偏远地区与网络基础设施薄弱区域,进一步扩充了星链星座的规模。

Basic Information
目录编号:
65057
目录名称:
STARLINK-34745
国际标识:
2025-165B
轨道中心:
EARTH
卫星名称:
星链-34745
卫星全名:
星链-34745 (STARLINK-34745)
卫星状态:
在轨 (已飞行317 天)
发射日期:
2025-07-31 UTC
国别 :
美国 (US)
星等 :
--
Orbit Information
数据来源 国际轨道数据 AOE轨道数据
星历时间 2026-06-13T13:34:25+0800
13小时前
查看轨道信息
2026-06-08T01:00:00+0800
6天前
查看轨道信息
半长轴 6927.654km 6927.656km
偏心率 0.0001481 0.0001837
轨道倾角 97.370° 97.394°
近地点辐角 129.988° 113.380°
升交点赤经 240.498° 235.221°
平近点角 230.148° 204.190°
近地点 548.491km 548.246km
远地点 550.543km 550.792km
周期 95.640分钟 95.640分钟
每日圈数 15.056481 15.056477
Detailed Information
固有亮度:
5
最大亮度:
2.5
卫星平台:
Starlink V1.0
覆盖范围:
全球
运营商:
太空探索技术公司
运营商所在国:
美国
制造商(研发单位):
太空探索技术公司
制造商所在国:
美国
使用方式:
暂无
Satellite Introduction
Starlink 计划是 SpaceX 推出的全球卫星互联网项目,通过发射低轨道卫星,为全球尤其是偏远地区提供高速、低延迟的互联网服务。自 2019 年起,Starlink 已部署数千颗卫星,旨在缩小全球数字鸿沟,推动互联网普及。该项目还为军事、航空等行业提供通信支持,带来广泛经济效益。
2D Orbit Map
3D Orbit Map
Orbit Altitude Analysis Chart
Orbit Inclination Analysis Chart
Orbit Comprehensive Analysis Chart
View Comprehensive Chart